Change the Weather History Date:

Wednesday, October 9, 2013

  Actual Average Record
Temperature  
Mean Temperature 62 °F -  
Max Temperature 77 °F 62 °F 87 °F (2010)
Min Temperature 46 °F 39 °F 22 °F (1964)
Degree Days  
Heating Degree Days 4    
Growing Degree Days 12 (Base 50)    
Moisture  
Dew Point 47 °F    
Average Humidity 65    
Maximum Humidity 100    
Minimum Humidity 29    
Precipitation  
Precipitation 0.00 in - - ()
Sea Level Pressure  
Sea Level Pressure 30.02 in    
Wind  
Wind Speed 10 mph (SSE)    
Max Wind Speed 18 mph    
Max Gust Speed 26 mph    
Visibility 10 miles    
Events      
Averages and records for this station are not official NWS values.
T = Trace of Precipitation, MM = Missing Value Source: NWS Daily Summary

Daily Weather History Graph

Daily Weather History Graph

Search for Another Location

Airport or City:

Trip Planner

Search our weather history database for the weather conditions in past years. The results will help you decide how hot, cold, wet, or windy it might be!

Date:

Astronomy

Oct. 09, 2013 Rise Set
Actual Time 7:25 AM CDT 6:46 PM CDT
Civil Twilight 6:57 AM CDT 7:14 PM CDT
Nautical Twilight 6:24 AM CDT 7:47 PM CDT
Astronomical Twilight 5:52 AM CDT 8:19 PM CDT
Moon 12:25 PM CDT (10/9) 10:18 PM CDT (10/9)
Length of Visible Light 12h 17m
Length of Day
11h 21m
Waxing Crescent, 25% of the Moon is Illuminated
Oct 9
Waxing Crescent
Oct 11
First Quarter
Oct 18
Full
Oct 26
Last Quarter
Nov 3
New

Hourly Weather History & Observations

Time (CDT) Temp. Windchill Dew Point Humidity Pressure Visibility Wind Dir Wind Speed Gust Speed Precip Events Conditions
12:15 AM 59.0 °F - 46.4 °F 63% 29.99 in 10.0 mi South 11.5 mph 17.3 mph N/A   Clear
12:35 AM 59.0 °F - 46.4 °F 63% 29.99 in 10.0 mi South 9.2 mph - N/A   Clear
12:55 AM 57.2 °F - 46.4 °F 67% 30.00 in 10.0 mi South 9.2 mph - N/A   Clear
1:15 AM 57.2 °F - 46.4 °F 67% 30.00 in 10.0 mi South 9.2 mph - N/A   Clear
1:35 AM 57.2 °F - 46.4 °F 67% 30.01 in 10.0 mi South 9.2 mph - N/A   Clear
1:55 AM 55.4 °F - 46.4 °F 72% 30.01 in 10.0 mi South 8.1 mph - N/A   Clear
2:15 AM 55.4 °F - 46.4 °F 72% 30.02 in 10.0 mi South 6.9 mph - N/A   Clear
2:35 AM 53.6 °F - 46.4 °F 77% 30.02 in 10.0 mi South 9.2 mph - N/A   Clear
2:55 AM 53.6 °F - 48.2 °F 82% 30.01 in 10.0 mi South 10.4 mph - N/A   Clear
3:15 AM 55.4 °F - 48.2 °F 77% 30.01 in 10.0 mi South 11.5 mph - N/A   Clear
3:35 AM 55.4 °F - 48.2 °F 77% 30.01 in 10.0 mi South 11.5 mph - N/A   Clear
3:55 AM 55.4 °F - 48.2 °F 77% 30.01 in 10.0 mi South 11.5 mph - N/A   Clear
4:15 AM 55.4 °F - 48.2 °F 77% 30.01 in 10.0 mi South 10.4 mph - N/A   Clear
4:35 AM 55.4 °F - 48.2 °F 77% 30.02 in 10.0 mi South 8.1 mph - N/A   Clear
4:55 AM 53.6 °F - 48.2 °F 82% 30.02 in 10.0 mi South 6.9 mph - N/A   Clear
5:15 AM 50.0 °F - 46.4 °F 87% 30.02 in 10.0 mi SE 5.8 mph - N/A   Clear
5:35 AM 48.2 °F - 46.4 °F 93% 30.02 in 10.0 mi SE 4.6 mph - N/A   Clear
5:55 AM 50.0 °F - 48.2 °F 94% 30.02 in 10.0 mi SSE 6.9 mph - N/A   Clear
6:15 AM 48.2 °F - 46.4 °F 93% 30.02 in 10.0 mi SSE 6.9 mph - N/A   Clear
6:35 AM 50.0 °F - 48.2 °F 94% 30.02 in 10.0 mi South 6.9 mph - N/A   Clear
6:55 AM 50.0 °F - 48.2 °F 94% 30.03 in 10.0 mi South 9.2 mph - N/A   Clear
7:15 AM 46.4 °F 43.5 °F 44.6 °F 93% 30.03 in 10.0 mi SE 5.8 mph - N/A   Clear
7:35 AM 46.4 °F 44.3 °F 44.6 °F 93% 30.03 in 10.0 mi SE 4.6 mph - N/A   Clear
7:55 AM 48.2 °F - 46.4 °F 93% 30.03 in - SSE 3.5 mph - N/A   Unknown
8:15 AM 48.2 °F - 48.2 °F 100% 30.04 in 10.0 mi Calm Calm - N/A   Clear
8:35 AM 50.0 °F - 50.0 °F 100% 30.04 in 10.0 mi Calm Calm - N/A   Clear
8:55 AM 53.6 °F - 50.0 °F 88% 30.04 in 10.0 mi SSE 5.8 mph - N/A   Clear
9:15 AM 59.0 °F - 50.0 °F 72% 30.04 in 10.0 mi South 13.8 mph - N/A   Clear
9:35 AM 60.8 °F - 50.0 °F 68% 30.04 in 10.0 mi South 15.0 mph - N/A   Clear
9:55 AM 62.6 °F - 48.2 °F 59% 30.05 in 10.0 mi South 13.8 mph 20.7 mph N/A   Clear
10:15 AM 64.4 °F - 48.2 °F 56% 30.05 in 10.0 mi South 13.8 mph 21.9 mph N/A   Clear
10:35 AM 64.4 °F - 48.2 °F 56% 30.05 in 10.0 mi South 13.8 mph 23.0 mph N/A   Clear
10:55 AM 66.2 °F - 48.2 °F 52% 30.05 in 10.0 mi South 15.0 mph 20.7 mph N/A   Clear
11:15 AM 68.0 °F - 48.2 °F 49% 30.05 in 10.0 mi South 15.0 mph - N/A   Clear
11:35 AM 69.8 °F - 48.2 °F 46% 30.05 in 10.0 mi South 17.3 mph - N/A   Clear
11:55 AM 71.6 °F - 50.0 °F 46% 30.05 in 10.0 mi South 15.0 mph 20.7 mph N/A   Clear
12:15 PM 71.6 °F - 48.2 °F 43% 30.05 in 10.0 mi SSE 13.8 mph 21.9 mph N/A   Clear
12:35 PM 71.6 °F - 48.2 °F 43% 30.05 in 10.0 mi SSE 15.0 mph 21.9 mph N/A   Clear
12:55 PM 73.4 °F - 48.2 °F 41% 30.04 in 10.0 mi SSE 15.0 mph 23.0 mph N/A   Clear
1:15 PM 73.4 °F - 48.2 °F 41% 30.04 in 10.0 mi South 13.8 mph 21.9 mph N/A   Clear
1:35 PM 75.2 °F - 48.2 °F 38% 30.03 in 10.0 mi SSE 15.0 mph 23.0 mph N/A   Clear
1:55 PM 75.2 °F - 48.2 °F 38% 30.03 in 10.0 mi SSE 15.0 mph 23.0 mph N/A   Clear
2:15 PM 75.2 °F - 48.2 °F 38% 30.02 in 10.0 mi SSE 17.3 mph - N/A   Clear
2:35 PM 75.2 °F - 46.4 °F 36% 30.02 in 10.0 mi SE 17.3 mph 26.5 mph N/A   Clear
2:55 PM 75.2 °F - 48.2 °F 38% 30.01 in 10.0 mi SSE 17.3 mph - N/A   Clear
3:15 PM 77.0 °F - 48.2 °F 36% 30.00 in 10.0 mi SSE 17.3 mph - N/A   Clear
3:55 PM 77.0 °F - 46.4 °F 34% 30.00 in 10.0 mi SSE 17.3 mph 24.2 mph N/A   Clear
4:15 PM 75.2 °F - 44.6 °F 34% 30.00 in 10.0 mi South 17.3 mph 24.2 mph N/A   Clear
4:35 PM 75.2 °F - 42.8 °F 31% 29.99 in 10.0 mi SSE 18.4 mph 25.3 mph N/A   Clear
4:55 PM 75.2 °F - 41.0 °F 29% 29.99 in 10.0 mi SSE 18.4 mph - N/A   Clear
5:15 PM 75.2 °F - 44.6 °F 34% 29.99 in - SSE 15.0 mph 23.0 mph N/A   Clear
5:35 PM 75.2 °F - 42.8 °F 31% 29.99 in 9.0 mi SSE 18.4 mph - N/A   Clear
5:55 PM 73.4 °F - 44.6 °F 36% 29.99 in 9.0 mi SSE 11.5 mph 20.7 mph N/A   Clear
6:15 PM 71.6 °F - 46.4 °F 41% 29.99 in 9.0 mi SSE 12.7 mph - N/A   Clear
6:55 PM 66.2 °F - 48.2 °F 52% 29.99 in 9.0 mi SE 10.4 mph - N/A   Clear
7:15 PM 62.6 °F - 48.2 °F 59% 29.99 in 10.0 mi SE 9.2 mph - N/A   Clear
7:35 PM 62.6 °F - 48.2 °F 59% 29.99 in 9.0 mi SE 10.4 mph - N/A   Clear
7:55 PM 62.6 °F - 48.2 °F 59% 30.00 in 10.0 mi SE 10.4 mph - N/A   Clear
8:15 PM 60.8 °F - 48.2 °F 63% 30.00 in 9.0 mi SSE 9.2 mph - N/A   Clear
8:35 PM 59.0 °F - 48.2 °F 67% 30.01 in 10.0 mi SE 8.1 mph - N/A   Clear
8:55 PM 57.2 °F - 48.2 °F 72% 30.01 in 9.0 mi SE 9.2 mph - N/A   Clear
9:15 PM 57.2 °F - 48.2 °F 72% 30.01 in 10.0 mi SSE 9.2 mph - N/A   Clear
9:35 PM 55.4 °F - 48.2 °F 77% 30.01 in 10.0 mi SSE 9.2 mph - N/A   Clear
9:55 PM 55.4 °F - 48.2 °F 77% 30.01 in 10.0 mi SSE 8.1 mph - N/A   Clear
10:15 PM 55.4 °F - 48.2 °F 77% 30.01 in 10.0 mi SSE 8.1 mph - N/A   Clear
10:35 PM 53.6 °F - 48.2 °F 82% 30.02 in 10.0 mi SSE 5.8 mph - N/A   Clear
10:55 PM 51.8 °F - 48.2 °F 88% 30.02 in 10.0 mi SSE 5.8 mph - N/A   Clear
11:15 PM 53.6 °F - 48.2 °F 82% 30.02 in 10.0 mi Calm Calm - N/A   Clear
11:55 PM 51.8 °F - 46.4 °F 82% 30.03 in 10.0 mi SSE 3.5 mph - N/A   Clear